STARLINK-32179, 60734

Orbit data source: Space-Track

STARLINK-32179, 60734 is a payload satellite owned by SpaceX/Seattle (US) in LEO that was launched on Wed, 28 Aug 2024 UTC via an FALCON 9 launch vehicle from the Air Force Eastern Test Range (AFETR). Payload-class satellites include a variety of spacecraft equipped with specific instruments for various scientific and technological missions. These include communications satellites like Starlink; space stations such as the ISS; scientific satellites like the Hubble; Earth observation satellites from companies like Planet Labs, Umbra, and HawkEye 360; GPS; miniature CubeSats for education and research; and military/defense satellites.

Loading next visibility...
Identifier
60734, 2024-152Q
Orbit
LEO
Last TLE update
14 hours ago
Origin
Manufacturer
SpaceX/Seattle
Mission
Operational Commercial Communications
Bus & Motor
STARLINK V2M, Unknown motor
Mass
730 kg wet, ~700 kg dry
Launch date (UTC)
2024-08-28 (10 months ago)
Launch vehicle
FALCON 9
Launch site
Air Force Eastern Test Range (AFETR)
Object type
Payload
Rocket body
Debris
Shape & HBR
Box + 2 Pan, 29 m
Radar Cross Section
36.964 m², Large (>1 m²)

Expand to show TLE details & history

TLE from 14 hours ago
0 STARLINK-32179
1 60734U 24152Q   25181.82438996  .00000362  00000-0  24361-4 0  9991
2 60734  53.1606 358.7111 0001105  77.3712 282.7413 15.30191718 48154
Epoch: 2025-06-30T19:47Z
TLE epoch observation values (Epoch: 2025-06-30T19:47:07.292Z)
Latitude
0.00003°
Longitude
142.80209°
Altitude
475.973 km
Speed
7.629 km/s
True Right ascension
23h 54m 50s
True Declination
0° 00' 00"
Sunlit
Object was in daylight at epoch
Visualization orbit readout
Latitude
-49.05853°
Longitude
19.34968°
Altitude
492.861 km
Speed
7.618 km/s
Apparent Right ascension
12h 10m 57s
Apparent Declination
-56° 36' 35"
Sunlit
Object is in full shadow
Visualization observer readout
Local Sidereal Time
21:03:11
Azimuth
225.202° WSW
Elevation
-55.48°
Doppler factor
1
Orbital elements
Apogee altitude
476.253 km
Perigee altitude
474.739 km
Semi-major axis
6,853.633 km
Eccentricity
0.00011
Inclination
53.1606°
RAAN
358.7111°
Arg. of periapsis
77.3712°
True anomaly
Unknown
Mean anomaly
282.7413°
Eccentric anomaly
Unknown
Mean motion
3.82527 °/min
Orbital period
94.11 mins
BSTAR
0.000024361
Loading maneuver chart data...
Loading SW <> Apogee altitude chart data...
Loading historical data...
Loading historical data...
Loading historical data...
Loading historical data...
Loading historical data...
Loading historical data...
Loading historical data...

STARLINK-32179 Visibility forecast

Observer location: undefined°, undefined°

Span
Click to sort rows by Start time (UTC) header in descending order
Start Az.
Max El. time (UTC)
Max El. Az.
Max El.
End time (UTC)
End Az.
5 mins2025-07-01 14:47:54.276Z242.784° WSW2025-07-01 14:49:54.276Z289.032° WNW41.668°2025-07-01 14:52:54.276Z42.825° NE
4 mins2025-07-01 19:44:54.276Z343.195° N2025-07-01 19:46:54.276Z21.642° NNE18.367°2025-07-01 19:48:54.276Z61.321° ENE
6 mins2025-07-01 21:22:54.276Z306.809° NW2025-07-01 21:24:54.276Z285.246° WNW43.156°2025-07-01 21:28:54.276Z134.667° SE
|